,,,PA_Meas_PMT16A,,PR_Meas_QMR101_102,,RH_Meas_QMH101,,SR_Meas_QMS101,,TA_Meas_QMH101,,GenWind,,GenWind,
date,time,status,PA,status,PR,status,RH,status,SR,status,TA,status,DirAvg,status,SpdAvg,
2008-11-30, 00:00:04,VALID,1006.04,VALID,0,VALID,87.0455,VALID,0,VALID,26.118,VALID,329,VALID,0.726563,
2008-11-30, 00:01:04,VALID,1006.01,VALID,0,VALID,87.0226,VALID,0,VALID,26.159,VALID,349,VALID,0.911328,
2008-11-30, 00:02:04,VALID,1006.03,VALID,0,VALID,87.0532,VALID,0,VALID,26.1784,VALID,350,VALID,0.99375,
2008-11-30, 00:03:04,VALID,1006.02,VALID,0,VALID,87.0303,VALID,0,VALID,26.159,VALID,354,VALID,0.853125,
2008-11-30, 00:04:04,VALID,1006.01,VALID,0,VALID,87.1142,VALID,0,VALID,26.1375,VALID,344,VALID,0.729688,
2008-11-30, 00:05:04,VALID,1006.01,VALID,0,VALID,87.2134,VALID,0,VALID,26.1395,VALID,358,VALID,0.406641,
2008-11-30, 00:06:04,VALID,1005.98,VALID,0,VALID,87.3049,VALID,0,VALID,26.1395,VALID,358,VALID,0.459766,
2008-11-30, 00:07:04,VALID,1006.02,VALID,0,VALID,87.3125,VALID,0,VALID,26.0791,VALID,343,VALID,0.529688,
2008-11-30, 00:08:04,VALID,1005.99,VALID,0,VALID,87.4499,VALID,0,VALID,26.1005,VALID,342,VALID,0.551172,
2008-11-30, 00:09:04,VALID,1005.97,VALID,0,VALID,87.549,VALID,0,VALID,26.081,VALID,297,VALID,0.487891,
2008-11-30, 00:10:04,VALID,1005.97,VALID,0,VALID,87.6024,VALID,0,VALID,26.0596,VALID,340,VALID,0.629297,
2008-11-30, 00:11:04,VALID,1005.96,VALID,0,VALID,87.694,VALID,0,VALID,26.081,VALID,357,VALID,0.770312,
2008-11-30, 00:12:04,VALID,1005.95,VALID,0,VALID,87.7245,VALID,0,VALID,26.0596,VALID,330,VALID,0.928125,
2008-11-30, 00:13:04,VALID,1005.91,VALID,0,VALID,87.7779,VALID,0,VALID,26.0596,VALID,349,VALID,0.259766,
2008-11-30, 00:14:04,VALID,1005.9,VALID,0,VALID,87.8237,VALID,0,VALID,26.0596,VALID,307,VALID,0.432031,
2008-11-30, 00:15:04,VALID,1005.91,VALID,0,VALID,87.9305,VALID,0,VALID,26.0596,VALID,287,VALID,0.194922,
2008-11-30, 00:16:04,VALID,1005.91,VALID,0,VALID,87.9762,VALID,0,VALID,26.0616,VALID,275,VALID,0.246484,
2008-11-30, 00:17:04,VALID,1005.93,VALID,0,VALID,87.9534,VALID,0,VALID,26.0401,VALID,331,VALID,0.208594,
2008-11-30, 00:18:04,VALID,1005.91,VALID,0,VALID,87.8694,VALID,0,VALID,26.0596,VALID,336,VALID,0.241016,
2008-11-30, 00:19:04,VALID,1005.91,VALID,0,VALID,87.4651,VALID,0,VALID,26.0596,VALID,347,VALID,0.978906,
2008-11-30, 00:20:04,VALID,1005.9,VALID,0,VALID,87.3888,VALID,0,VALID,26.0985,VALID,339,VALID,0.735937,
2008-11-30, 00:21:04,VALID,1005.9,VALID,0,VALID,87.0684,VALID,0,VALID,26.118,VALID,356,VALID,1.29297,
2008-11-30, 00:22:04,VALID,1005.89,VALID,0,VALID,86.8929,VALID,0,VALID,26.157,VALID,350,VALID,0.917188,
2008-11-30, 00:23:04,VALID,1005.92,VALID,0,VALID,86.9158,VALID,0,VALID,26.1765,VALID,344,VALID,0.367969,
2008-11-30, 00:24:04,VALID,1005.87,VALID,0,VALID,86.9311,VALID,0,VALID,26.1959,VALID,349,VALID,0.704687,
2008-11-30, 00:25:04,VALID,1005.89,VALID,0,VALID,86.8395,VALID,0,VALID,26.2174,VALID,350,VALID,0.889063,
2008-11-30, 00:26:04,VALID,1005.86,VALID,0,VALID,86.809,VALID,0,VALID,26.2174,VALID,357,VALID,0.948828,
2008-11-30, 00:27:04,VALID,1005.84,VALID,0,VALID,86.954,VALID,0,VALID,26.2349,VALID,346,VALID,0.234766,
2008-11-30, 00:28:04,VALID,1005.86,VALID,0,VALID,87.0837,VALID,0,VALID,26.2154,VALID,347,VALID,0.798828,
2008-11-30, 00:29:04,VALID,1005.86,VALID,0,VALID,87.2057,VALID,0,VALID,26.1959,VALID,342,VALID,0.611328,
2008-11-30, 00:30:04,VALID,1005.84,VALID,0,VALID,87.5261,VALID,0,VALID,26.157,VALID,342,VALID,0.438281,
2008-11-30, 00:31:04,VALID,1005.84,VALID,0,VALID,87.694,VALID,0,VALID,26.12,VALID,349,VALID,0.84375,
2008-11-30, 00:32:04,VALID,1005.83,VALID,0,VALID,87.8313,VALID,0,VALID,26.0596,VALID,316,VALID,0.835156,
2008-11-30, 00:33:04,VALID,1005.83,VALID,0,VALID,88.1212,VALID,0,VALID,26.0401,VALID,341,VALID,0.46875,
2008-11-30, 00:34:04,VALID,1005.79,VALID,0,VALID,88.1975,VALID,0,VALID,26.0206,VALID,340,VALID,0.472266,
2008-11-30, 00:35:04,VALID,1005.77,VALID,0,VALID,88.4035,VALID,0,VALID,25.9817,VALID,3,VALID,0.603125,
2008-11-30, 00:36:04,VALID,1005.72,VALID,0,VALID,88.64,VALID,0,VALID,26.0031,VALID,2,VALID,0.489453,
2008-11-30, 00:37:04,VALID,1005.72,VALID,0,VALID,88.7925,VALID,0,VALID,25.9427,VALID,355,VALID,0.610156,
2008-11-30, 00:38:04,VALID,1005.68,VALID,0,VALID,89.0367,VALID,0,VALID,25.9252,VALID,358,VALID,0.706641,
2008-11-30, 00:39:04,VALID,1005.69,VALID,0,VALID,89.3037,VALID,0,VALID,25.8863,VALID,359,VALID,0.440234,
2008-11-30, 00:40:04,VALID,1005.66,VALID,0,VALID,89.5325,VALID,0.100563,VALID,25.8453,VALID,359,VALID,0.538672,
2008-11-30, 00:41:04,VALID,1005.64,VALID,0,VALID,89.769,VALID,0.100563,VALID,25.785,VALID,3,VALID,0.372656,
2008-11-30, 00:42:04,VALID,1005.65,VALID,0,VALID,89.9216,VALID,0,VALID,25.8064,VALID,343,VALID,0.317969,
2008-11-30, 00:43:04,VALID,1005.64,VALID,0,VALID,90.0589,VALID,0.100563,VALID,25.7655,VALID,344,VALID,0.353125,
2008-11-30, 00:44:04,VALID,1005.64,VALID,0,VALID,90.1657,VALID,0.100563,VALID,25.7674,VALID,344,VALID,0.356641,
2008-11-30, 00:45:04,VALID,1005.6,VALID,0,VALID,90.2344,VALID,0.100563,VALID,25.7265,VALID,344,VALID,0.139844,
2008-11-30, 00:46:04,VALID,1005.62,VALID,0,VALID,90.3412,VALID,0.100563,VALID,25.7285,VALID,344,VALID,0.35625,
2008-11-30, 00:47:04,VALID,1005.6,VALID,0,VALID,90.3946,VALID,0.100563,VALID,25.7071,VALID,348,VALID,0.45,
2008-11-30, 00:48:04,VALID,1005.58,VALID,0,VALID,90.4251,VALID,0.100563,VALID,25.709,VALID,348,VALID,0.464063,
2008-11-30, 00:49:04,VALID,1005.59,VALID,0,VALID,90.3259,VALID,0.100563,VALID,25.6681,VALID,348,VALID,0.665234,
2008-11-30, 00:50:04,VALID,1005.59,VALID,0,VALID,90.387,VALID,0,VALID,25.709,VALID,348,VALID,0.432031,
2008-11-30, 00:51:04,VALID,1005.6,VALID,0,VALID,90.4175,VALID,0.100563,VALID,25.709,VALID,345,VALID,0.4875,
2008-11-30, 00:52:04,VALID,1005.64,VALID,0,VALID,90.4709,VALID,0.100563,VALID,25.6876,VALID,345,VALID,0.153906,
2008-11-30, 00:53:04,VALID,1005.68,VALID,0,VALID,90.5472,VALID,0.100563,VALID,25.6895,VALID,345,VALID,0.29375,
2008-11-30, 00:54:04,VALID,1005.71,VALID,0,VALID,90.6311,VALID,0.100563,VALID,25.6895,VALID,345,VALID,0.148438,
2008-11-30, 00:55:04,VALID,1005.75,VALID,0,VALID,90.6845,VALID,0,VALID,25.6506,VALID,345,VALID,0,
2008-11-30, 00:56:04,VALID,1005.81,VALID,0,VALID,90.7226,VALID,0,VALID,25.6525,VALID,345,VALID,0,
2008-11-30, 00:57:04,VALID,1005.79,VALID,0,VALID,90.7455,VALID,0,VALID,25.6525,VALID,345,VALID,0,
2008-11-30, 00:58:04,VALID,1005.82,VALID,0,VALID,90.7455,VALID,0,VALID,25.633,VALID,345,VALID,0.0585938,
2008-11-30, 00:59:04,VALID,1005.81,VALID,0,VALID,90.8295,VALID,0,VALID,25.6311,VALID,345,VALID,0.210938,
2008-11-30, 01:00:04,VALID,1005.76,VALID,0,VALID,90.8295,VALID,0,VALID,25.6311,VALID,345,VALID,0,
2008-11-30, 01:01:04,VALID,1005.74,VALID,0,VALID,90.7684,VALID,0,VALID,25.6915,VALID,345,VALID,0.261328,
2008-11-30, 01:02:04,VALID,1005.7,VALID,0,VALID,90.7379,VALID,0,VALID,25.672,VALID,334,VALID,0.645312,
2008-11-30, 01:03:04,VALID,1005.64,VALID,0,VALID,90.6387,VALID,0,VALID,25.67,VALID,353,VALID,0.551172,
2008-11-30, 01:04:04,VALID,1005.6,VALID,0,VALID,90.6769,VALID,0,VALID,25.7109,VALID,344,VALID,0.478125,
2008-11-30, 01:05:04,VALID,1005.53,VALID,0,VALID,90.6769,VALID,0,VALID,25.67,VALID,345,VALID,0.594141,
2008-11-30, 01:06:04,VALID,1005.51,VALID,0,VALID,90.7226,VALID,0,VALID,25.672,VALID,347,VALID,0.501562,
2008-11-30, 01:07:04,VALID,1005.49,VALID,0,VALID,90.8218,VALID,0,VALID,25.6506,VALID,347,VALID,0.464453,
2008-11-30, 01:08:05,VALID,1005.47,VALID,0,VALID,90.86,VALID,0,VALID,25.6525,VALID,347,VALID,0.525,
2008-11-30, 01:09:05,VALID,1005.42,VALID,0,VALID,90.9591,VALID,0,VALID,25.6116,VALID,351,VALID,0.411719,
2008-11-30, 01:10:05,VALID,1005.42,VALID,0,VALID,91.0507,VALID,0,VALID,25.6311,VALID,351,VALID,0.283984,
2008-11-30, 01:11:05,VALID,1005.42,VALID,0,VALID,91.1041,VALID,0.100563,VALID,25.5902,VALID,351,VALID,0.298438,
2008-11-30, 01:12:05,VALID,1005.42,VALID,0,VALID,91.1346,VALID,0.100563,VALID,25.6116,VALID,349,VALID,0.516797,
2008-11-30, 01:13:05,VALID,1005.45,VALID,0,VALID,91.1575,VALID,0,VALID,25.5921,VALID,350,VALID,0.0882813,
2008-11-30, 01:14:05,VALID,1005.46,VALID,0,VALID,91.1804,VALID,0.100563,VALID,25.6116,VALID,350,VALID,0.404297,
2008-11-30, 01:15:05,VALID,1005.41,VALID,0,VALID,91.188,VALID,0.100563,VALID,25.5902,VALID,350,VALID,0.205078,
2008-11-30, 01:16:05,VALID,1005.44,VALID,0,VALID,91.2338,VALID,0.100563,VALID,25.5921,VALID,350,VALID,0.174609,
2008-11-30, 01:17:05,VALID,1005.43,VALID,0,VALID,91.394,VALID,0.100563,VALID,25.5921,VALID,350,VALID,0.207031,
2008-11-30, 01:18:05,VALID,1005.42,VALID,0,VALID,91.4779,VALID,0.100563,VALID,25.5921,VALID,350,VALID,0,
2008-11-30, 01:19:05,VALID,1005.4,VALID,0,VALID,91.5237,VALID,0.100563,VALID,25.5707,VALID,350,VALID,0,
2008-11-30, 01:20:05,VALID,1005.39,VALID,0,VALID,91.4779,VALID,0.100563,VALID,25.5727,VALID,350,VALID,0,
2008-11-30, 01:21:05,VALID,1005.35,VALID,0,VALID,91.4474,VALID,0.100563,VALID,25.5513,VALID,350,VALID,0,
2008-11-30, 01:22:05,VALID,1005.32,VALID,0,VALID,91.5313,VALID,0.100563,VALID,25.5318,VALID,350,VALID,0,
2008-11-30, 01:23:05,VALID,1005.32,VALID,0,VALID,91.6229,VALID,0.100563,VALID,25.5513,VALID,350,VALID,0,
2008-11-30, 01:24:05,VALID,1005.33,VALID,0,VALID,91.7449,VALID,0.100563,VALID,25.5532,VALID,350,VALID,0,
2008-11-30, 01:25:05,VALID,1005.3,VALID,0,VALID,91.8594,VALID,0,VALID,25.5551,VALID,350,VALID,0,
2008-11-30, 01:26:05,VALID,1005.29,VALID,0,VALID,91.867,VALID,0,VALID,25.5551,VALID,350,VALID,0,
2008-11-30, 01:27:05,VALID,1005.27,VALID,0,VALID,91.8822,VALID,0,VALID,25.5337,VALID,350,VALID,0,
2008-11-30, 01:28:05,VALID,1005.25,VALID,0,VALID,91.8899,VALID,0,VALID,25.5551,VALID,350,VALID,0,
2008-11-30, 01:29:05,VALID,1005.24,VALID,0,VALID,91.9128,VALID,0,VALID,25.5357,VALID,350,VALID,0,
2008-11-30, 01:30:05,VALID,1005.22,VALID,0,VALID,92.0196,VALID,0,VALID,25.4948,VALID,350,VALID,0,
2008-11-30, 01:31:05,VALID,1005.24,VALID,0,VALID,92.134,VALID,0,VALID,25.4753,VALID,6,VALID,0,
2008-11-30, 01:32:05,VALID,1005.23,VALID,0,VALID,92.2789,VALID,0,VALID,25.4753,VALID,135,VALID,0.692187,
2008-11-30, 01:33:05,VALID,1005.22,VALID,0,VALID,92.3705,VALID,0,VALID,25.4772,VALID,152,VALID,0.865234,
2008-11-30, 01:34:05,VALID,1005.22,VALID,0,VALID,92.5231,VALID,0,VALID,25.4363,VALID,148,VALID,0.931641,
2008-11-30, 01:35:05,VALID,1005.21,VALID,0,VALID,92.6299,VALID,0,VALID,25.3974,VALID,144,VALID,0.700781,
2008-11-30, 01:36:05,VALID,1005.2,VALID,0,VALID,92.6756,VALID,0,VALID,25.3993,VALID,124,VALID,1.51719,
2008-11-30, 01:37:05,VALID,1005.17,VALID,0,VALID,92.7443,VALID,0,VALID,25.3798,VALID,132,VALID,0.726172,
2008-11-30, 01:38:05,VALID,1005.13,VALID,0,VALID,92.7977,VALID,0,VALID,25.3584,VALID,113,VALID,0.466797,
2008-11-30, 01:39:05,VALID,1005.13,VALID,0,VALID,92.813,VALID,0,VALID,25.339,VALID,103,VALID,0.982031,
2008-11-30, 01:40:05,VALID,1005.1,VALID,0,VALID,92.7214,VALID,0,VALID,25.3604,VALID,83,VALID,0.890234,
2008-11-30, 01:41:05,VALID,1005.09,VALID,0,VALID,92.5765,VALID,0,VALID,25.3974,VALID,92,VALID,0.917578,
2008-11-30, 01:42:05,VALID,1005.06,VALID,0,VALID,92.3552,VALID,0,VALID,25.4363,VALID,92,VALID,1.13789,
2008-11-30, 01:43:05,VALID,1005.07,VALID,0,VALID,92.2789,VALID,0,VALID,25.4558,VALID,92,VALID,0.518359,
2008-11-30, 01:44:05,VALID,1005.06,VALID,0,VALID,92.2637,VALID,0,VALID,25.4363,VALID,63,VALID,0.382422,
2008-11-30, 01:45:05,VALID,1005.08,VALID,0,VALID,92.3018,VALID,0,VALID,25.4383,VALID,64,VALID,0.579297,
2008-11-30, 01:46:05,VALID,1005.05,VALID,0,VALID,92.3552,VALID,0,VALID,25.3974,VALID,65,VALID,0.374219,
2008-11-30, 01:47:05,VALID,1005.05,VALID,0,VALID,92.4544,VALID,0,VALID,25.3584,VALID,65,VALID,0.336719,
2008-11-30, 01:48:05,VALID,1005.02,VALID,0.5,VALID,92.5612,VALID,0,VALID,25.339,VALID,65,VALID,0.361719,
2008-11-30, 01:49:05,VALID,1004.98,VALID,0,VALID,92.6299,VALID,0,VALID,25.3409,VALID,68,VALID,0.509766,
2008-11-30, 01:50:05,VALID,1004.97,VALID,0,VALID,92.668,VALID,0,VALID,25.3214,VALID,68,VALID,0.149219,
2008-11-30, 01:51:05,VALID,1004.93,VALID,0,VALID,92.7214,VALID,0,VALID,25.3214,VALID,68,VALID,0.090625,
2008-11-30, 01:52:05,VALID,1004.89,VALID,0,VALID,92.7443,VALID,0,VALID,25.3019,VALID,68,VALID,0,
2008-11-30, 01:53:05,VALID,1004.88,VALID,0,VALID,92.7977,VALID,0,VALID,25.2806,VALID,68,VALID,0,
2008-11-30, 01:54:05,VALID,1004.85,VALID,0,VALID,92.9198,VALID,0,VALID,25.2825,VALID,68,VALID,0,
2008-11-30, 01:55:05,VALID,1004.82,VALID,0,VALID,93.0189,VALID,0,VALID,25.2806,VALID,67,VALID,0.247656,
2008-11-30, 01:56:05,VALID,1004.8,VALID,0,VALID,93.0495,VALID,0,VALID,25.2825,VALID,67,VALID,0.194922,
2008-11-30, 01:57:05,VALID,1004.82,VALID,0,VALID,93.0189,VALID,0,VALID,25.2416,VALID,67,VALID,0.262109,
2008-11-30, 01:58:05,VALID,1004.8,VALID,0,VALID,93.0495,VALID,0,VALID,25.2435,VALID,67,VALID,0.137109,
2008-11-30, 01:59:05,VALID,1004.76,VALID,0,VALID,93.0952,VALID,0,VALID,25.2221,VALID,66,VALID,0.441016,
2008-11-30, 02:00:05,VALID,1004.76,VALID,0.5,VALID,93.1486,VALID,0,VALID,25.224,VALID,65,VALID,0.0558594,
2008-11-30, 02:01:05,VALID,1004.76,VALID,0,VALID,93.202,VALID,0,VALID,25.2046,VALID,65,VALID,0.146875,
2008-11-30, 02:02:05,VALID,1004.74,VALID,0,VALID,93.3088,VALID,0,VALID,25.1832,VALID,65,VALID,0.112109,
2008-11-30, 02:03:05,VALID,1004.73,VALID,0,VALID,93.3546,VALID,0,VALID,25.1851,VALID,57,VALID,0.303516,
2008-11-30, 02:04:05,VALID,1004.71,VALID,0,VALID,93.4309,VALID,0,VALID,25.1656,VALID,57,VALID,0.132031,
2008-11-30, 02:05:05,VALID,1004.7,VALID,0,VALID,93.4614,VALID,0,VALID,25.1656,VALID,57,VALID,0,
2008-11-30, 02:06:05,VALID,1004.69,VALID,0,VALID,93.408,VALID,0,VALID,25.1248,VALID,355,VALID,0.759766,
2008-11-30, 02:07:05,VALID,1004.68,VALID,0.5,VALID,93.4919,VALID,0.100563,VALID,25.1053,VALID,355,VALID,0.294531,
2008-11-30, 02:08:05,VALID,1004.61,VALID,0,VALID,93.5682,VALID,0,VALID,25.1461,VALID,360,VALID,0.687891,
2008-11-30, 02:09:05,VALID,1004.59,VALID,0,VALID,93.5835,VALID,0,VALID,25.1461,VALID,8,VALID,0.165625,
2008-11-30, 02:10:05,VALID,1004.56,VALID,0,VALID,93.6445,VALID,0,VALID,25.1461,VALID,7,VALID,0.379297,
2008-11-30, 02:11:05,VALID,1004.53,VALID,0,VALID,93.6521,VALID,0,VALID,25.1248,VALID,5,VALID,0.598047,
2008-11-30, 02:12:05,VALID,1004.5,VALID,0,VALID,93.6674,VALID,0,VALID,25.1442,VALID,29,VALID,0.561719,
2008-11-30, 02:13:05,VALID,1004.48,VALID,0,VALID,93.614,VALID,0,VALID,25.1461,VALID,33,VALID,0.347656,
2008-11-30, 02:14:05,VALID,1004.47,VALID,0.5,VALID,93.553,VALID,0,VALID,25.1442,VALID,11,VALID,0.396094,
2008-11-30, 02:15:05,VALID,1004.49,VALID,0,VALID,93.5453,VALID,0,VALID,25.1637,VALID,2,VALID,0.730078,
2008-11-30, 02:16:05,VALID,1004.44,VALID,0,VALID,93.5301,VALID,0,VALID,25.2046,VALID,13,VALID,0.378125,
2008-11-30, 02:17:05,VALID,1004.43,VALID,0,VALID,93.5148,VALID,0,VALID,25.224,VALID,15,VALID,1.00117,
2008-11-30, 02:18:05,VALID,1004.41,VALID,0,VALID,93.4996,VALID,0,VALID,25.224,VALID,352,VALID,0.753906,
2008-11-30, 02:19:05,VALID,1004.37,VALID,0,VALID,93.5453,VALID,0,VALID,25.224,VALID,352,VALID,0.761719,
2008-11-30, 02:20:05,VALID,1004.36,VALID,0,VALID,93.5148,VALID,0,VALID,25.2027,VALID,351,VALID,0.575391,
2008-11-30, 02:21:05,VALID,1004.35,VALID,0,VALID,93.5224,VALID,0,VALID,25.2027,VALID,8,VALID,1.16016,
2008-11-30, 02:22:05,VALID,1004.32,VALID,0,VALID,93.5072,VALID,0,VALID,25.2416,VALID,18,VALID,0.717578,
2008-11-30, 02:23:05,VALID,1004.32,VALID,0.5,VALID,93.4919,VALID,0,VALID,25.2611,VALID,7,VALID,0.903125,
2008-11-30, 02:24:05,VALID,1004.27,VALID,0,VALID,93.4462,VALID,0,VALID,25.263,VALID,34,VALID,1.22656,
2008-11-30, 02:25:05,VALID,1004.28,VALID,0,VALID,93.3851,VALID,0,VALID,25.2825,VALID,24,VALID,1.83789,
2008-11-30, 02:26:05,VALID,1004.28,VALID,0,VALID,93.3088,VALID,0,VALID,25.2825,VALID,354,VALID,1.36953,
2008-11-30, 02:27:05,VALID,1004.27,VALID,0,VALID,93.2478,VALID,0,VALID,25.2416,VALID,31,VALID,1.74688,
2008-11-30, 02:28:05,VALID,1004.26,VALID,0,VALID,93.1715,VALID,0,VALID,25.3019,VALID,7,VALID,0.998047,
2008-11-30, 02:29:05,VALID,1004.28,VALID,0,VALID,93.1715,VALID,0,VALID,25.3019,VALID,44,VALID,1.26172,
2008-11-30, 02:30:05,VALID,1004.26,VALID,0,VALID,93.1715,VALID,0,VALID,25.3019,VALID,15,VALID,0.922656,
2008-11-30, 02:31:05,VALID,1004.29,VALID,0,VALID,93.1257,VALID,0,VALID,25.2825,VALID,360,VALID,0.753125,
2008-11-30, 02:32:05,VALID,1004.27,VALID,0,VALID,93.1181,VALID,0,VALID,25.263,VALID,30,VALID,1.12578,
2008-11-30, 02:33:05,VALID,1004.28,VALID,0.5,VALID,92.8282,VALID,0,VALID,25.1832,VALID,23,VALID,0.838281,
2008-11-30, 02:34:05,VALID,1004.29,VALID,0,VALID,92.8435,VALID,0,VALID,25.1851,VALID,28,VALID,0.602344,
2008-11-30, 02:35:05,VALID,1004.29,VALID,0,VALID,92.9045,VALID,0,VALID,25.1461,VALID,25,VALID,0.0175781,
2008-11-30, 02:36:05,VALID,1004.31,VALID,0,VALID,92.34,VALID,0,VALID,25.0858,VALID,34,VALID,1.55,
2008-11-30, 02:37:05,VALID,1004.34,VALID,0,VALID,92.4239,VALID,0,VALID,25.1053,VALID,33,VALID,0.648828,
2008-11-30, 02:38:05,VALID,1004.29,VALID,0,VALID,92.1721,VALID,0,VALID,25.1053,VALID,8,VALID,0.653906,
2008-11-30, 02:39:05,VALID,1004.32,VALID,0,VALID,92.3705,VALID,0,VALID,25.1267,VALID,4,VALID,0.779297,
2008-11-30, 02:40:05,VALID,1004.3,VALID,0,VALID,92.4163,VALID,0,VALID,25.0469,VALID,356,VALID,0.448047,
2008-11-30, 02:41:05,VALID,1004.3,VALID,0,VALID,92.5231,VALID,0,VALID,25.0488,VALID,8,VALID,0.727344,
2008-11-30, 02:42:05,VALID,1004.29,VALID,0,VALID,92.4773,VALID,0,VALID,25.0079,VALID,354,VALID,0.902344,
2008-11-30, 02:43:05,VALID,1004.29,VALID,0,VALID,92.5383,VALID,0,VALID,25.0098,VALID,351,VALID,0.695313,
2008-11-30, 02:44:05,VALID,1004.27,VALID,0,VALID,92.5917,VALID,0,VALID,24.969,VALID,344,VALID,0.606641,
2008-11-30, 02:45:05,VALID,1004.32,VALID,0,VALID,92.6146,VALID,0,VALID,24.9495,VALID,347,VALID,0.555078,
2008-11-30, 02:46:05,VALID,1004.31,VALID,0,VALID,92.7214,VALID,0,VALID,24.93,VALID,344,VALID,0.328125,
2008-11-30, 02:47:05,VALID,1004.3,VALID,0,VALID,92.7977,VALID,0,VALID,24.93,VALID,344,VALID,0.564453,
2008-11-30, 02:48:05,VALID,1004.34,VALID,0,VALID,92.9045,VALID,0,VALID,24.9106,VALID,344,VALID,0.105078,
2008-11-30, 02:49:05,VALID,1004.34,VALID,0,VALID,92.9961,VALID,0,VALID,24.9106,VALID,344,VALID,0,
2008-11-30, 02:50:05,VALID,1004.37,VALID,0,VALID,93.0647,VALID,0,VALID,24.8716,VALID,344,VALID,0,
2008-11-30, 02:51:05,VALID,1004.37,VALID,0,VALID,93.1563,VALID,0,VALID,24.8522,VALID,344,VALID,0,
2008-11-30, 02:52:05,VALID,1004.39,VALID,0,VALID,93.2554,VALID,0,VALID,24.8522,VALID,344,VALID,0,
2008-11-30, 02:53:05,VALID,1004.43,VALID,0.5,VALID,93.3165,VALID,0,VALID,24.8327,VALID,344,VALID,0,
2008-11-30, 02:54:05,VALID,1004.42,VALID,0,VALID,93.3928,VALID,0,VALID,24.8132,VALID,344,VALID,0,
2008-11-30, 02:55:05,VALID,1004.44,VALID,0,VALID,93.4385,VALID,0,VALID,24.8132,VALID,344,VALID,0,
2008-11-30, 02:56:05,VALID,1004.42,VALID,0,VALID,93.4919,VALID,0,VALID,24.7937,VALID,344,VALID,0.16875,
2008-11-30, 02:57:05,VALID,1004.43,VALID,0,VALID,93.5377,VALID,0,VALID,24.7937,VALID,358,VALID,0.398438,
2008-11-30, 02:58:05,VALID,1004.41,VALID,0,VALID,93.5682,VALID,0,VALID,24.7937,VALID,358,VALID,0.339844,
2008-11-30, 02:59:05,VALID,1004.4,VALID,0,VALID,93.6292,VALID,0,VALID,24.7937,VALID,358,VALID,0.00625,
2008-11-30, 03:00:05,VALID,1004.43,VALID,0,VALID,93.6521,VALID,0,VALID,24.7743,VALID,358,VALID,0.00117188,
2008-11-30, 03:01:05,VALID,1004.41,VALID,0,VALID,93.675,VALID,0,VALID,24.7743,VALID,358,VALID,0,
2008-11-30, 03:02:05,VALID,1004.39,VALID,0,VALID,93.7437,VALID,0,VALID,24.7548,VALID,358,VALID,0.336328,
2008-11-30, 03:03:05,VALID,1004.42,VALID,0,VALID,93.7589,VALID,0,VALID,24.714,VALID,27,VALID,0.633984,
2008-11-30, 03:04:05,VALID,1004.39,VALID,0,VALID,93.8352,VALID,0,VALID,24.7353,VALID,26,VALID,0.401563,
2008-11-30, 03:05:05,VALID,1004.38,VALID,0,VALID,93.8886,VALID,0,VALID,24.7353,VALID,28,VALID,0.350781,
2008-11-30, 03:06:05,VALID,1004.41,VALID,0,VALID,93.9115,VALID,0,VALID,24.7353,VALID,28,VALID,0.281641,
2008-11-30, 03:07:05,VALID,1004.4,VALID,0,VALID,93.9954,VALID,0,VALID,24.7567,VALID,28,VALID,0.163281,
2008-11-30, 03:08:05,VALID,1004.42,VALID,0,VALID,94.0412,VALID,0,VALID,24.7353,VALID,28,VALID,0.0210938,
2008-11-30, 03:09:05,VALID,1004.45,VALID,0,VALID,94.0565,VALID,0,VALID,24.7353,VALID,28,VALID,0,
2008-11-30, 03:10:05,VALID,1004.45,VALID,0,VALID,94.0488,VALID,0,VALID,24.7567,VALID,28,VALID,0.111719,
2008-11-30, 03:11:05,VALID,1004.45,VALID,0,VALID,94.1022,VALID,0,VALID,24.7159,VALID,28,VALID,0.16875,
2008-11-30, 03:12:05,VALID,1004.46,VALID,0,VALID,94.1328,VALID,0,VALID,24.7372,VALID,28,VALID,0,
2008-11-30, 03:13:05,VALID,1004.46,VALID,0,VALID,94.1709,VALID,0,VALID,24.7159,VALID,28,VALID,0,
2008-11-30, 03:14:05,VALID,1004.47,VALID,0,VALID,94.2014,VALID,0,VALID,24.6964,VALID,28,VALID,0,
2008-11-30, 03:15:05,VALID,1004.48,VALID,0.5,VALID,94.2243,VALID,0,VALID,24.7159,VALID,28,VALID,0,
2008-11-30, 03:16:05,VALID,1004.47,VALID,0,VALID,94.2624,VALID,0,VALID,24.7159,VALID,28,VALID,0,
2008-11-30, 03:17:05,VALID,1004.5,VALID,0,VALID,94.2853,VALID,0,VALID,24.6945,VALID,28,VALID,0,
2008-11-30, 03:18:05,VALID,1004.49,VALID,0,VALID,94.3158,VALID,0,VALID,24.6964,VALID,28,VALID,0,
2008-11-30, 03:19:05,VALID,1004.52,VALID,0,VALID,94.3464,VALID,0,VALID,24.7177,VALID,28,VALID,0,
2008-11-30, 03:20:05,VALID,1004.52,VALID,0,VALID,94.3616,VALID,0,VALID,24.6964,VALID,28,VALID,0,
2008-11-30, 03:21:05,VALID,1004.48,VALID,0,VALID,94.4074,VALID,0,VALID,24.6964,VALID,28,VALID,0,
2008-11-30, 03:22:05,VALID,1004.48,VALID,0,VALID,94.4455,VALID,0,VALID,24.6964,VALID,28,VALID,0,
2008-11-30, 03:23:05,VALID,1004.49,VALID,0,VALID,94.4837,VALID,0,VALID,24.7177,VALID,28,VALID,0,
2008-11-30, 03:24:05,VALID,1004.51,VALID,0,VALID,94.4684,VALID,0,VALID,24.6769,VALID,28,VALID,0,
2008-11-30, 03:25:05,VALID,1004.54,VALID,0,VALID,94.4989,VALID,0,VALID,24.6964,VALID,28,VALID,0,
2008-11-30, 03:26:05,VALID,1004.54,VALID,0,VALID,94.5218,VALID,0,VALID,24.6964,VALID,28,VALID,0,
2008-11-30, 03:27:05,VALID,1004.54,VALID,0,VALID,94.5066,VALID,0,VALID,24.6983,VALID,28,VALID,0,
2008-11-30, 03:28:05,VALID,1004.57,VALID,0,VALID,94.5447,VALID,0,VALID,24.6769,VALID,28,VALID,0,
2008-11-30, 03:29:05,VALID,1004.57,VALID,0,VALID,94.5447,VALID,0,VALID,24.6769,VALID,28,VALID,0,
2008-11-30, 03:30:05,VALID,1004.56,VALID,0,VALID,94.5676,VALID,0,VALID,24.6574,VALID,28,VALID,0,
2008-11-30, 03:31:05,VALID,1004.6,VALID,0,VALID,94.5981,VALID,0,VALID,24.6769,VALID,28,VALID,0,
2008-11-30, 03:32:05,VALID,1004.59,VALID,0,VALID,94.6363,VALID,0,VALID,24.6574,VALID,28,VALID,0,
2008-11-30, 03:33:05,VALID,1004.63,VALID,0,VALID,94.6591,VALID,0,VALID,24.6769,VALID,28,VALID,0,
2008-11-30, 03:34:05,VALID,1004.61,VALID,0,VALID,94.6363,VALID,0,VALID,24.6556,VALID,28,VALID,0,
2008-11-30, 03:35:05,VALID,1004.63,VALID,0.5,VALID,94.6591,VALID,0,VALID,24.6769,VALID,28,VALID,0,
2008-11-30, 03:36:05,VALID,1004.64,VALID,0,VALID,94.6744,VALID,0,VALID,24.6769,VALID,28,VALID,0,
2008-11-30, 03:37:05,VALID,1004.64,VALID,0,VALID,94.6973,VALID,0.100563,VALID,24.6769,VALID,28,VALID,0,
2008-11-30, 03:38:05,VALID,1004.65,VALID,0,VALID,94.7049,VALID,0,VALID,24.6769,VALID,28,VALID,0,
2008-11-30, 03:39:05,VALID,1004.67,VALID,0,VALID,94.7125,VALID,0,VALID,24.6769,VALID,28,VALID,0,
2008-11-30, 03:40:05,VALID,1004.67,VALID,0,VALID,94.6897,VALID,0,VALID,24.6769,VALID,28,VALID,0,
2008-11-30, 03:41:05,VALID,1004.69,VALID,0,VALID,94.7125,VALID,0,VALID,24.6574,VALID,28,VALID,0,
2008-11-30, 03:42:05,VALID,1004.68,VALID,0,VALID,94.7125,VALID,0,VALID,24.6574,VALID,28,VALID,0,
2008-11-30, 03:43:05,VALID,1004.68,VALID,0,VALID,94.7202,VALID,0,VALID,24.638,VALID,28,VALID,0,
2008-11-30, 03:44:05,VALID,1004.7,VALID,0,VALID,94.7354,VALID,0,VALID,24.6574,VALID,28,VALID,0,
2008-11-30, 03:45:05,VALID,1004.73,VALID,0,VALID,94.7583,VALID,0,VALID,24.6574,VALID,28,VALID,0,
2008-11-30, 03:46:05,VALID,1004.72,VALID,0,VALID,94.7888,VALID,0.100563,VALID,24.6556,VALID,28,VALID,0,
2008-11-30, 03:47:05,VALID,1004.71,VALID,0,VALID,94.8194,VALID,0.100563,VALID,24.6769,VALID,28,VALID,0,
2008-11-30, 03:48:05,VALID,1004.72,VALID,0,VALID,94.8346,VALID,0,VALID,24.675,VALID,28,VALID,0,